Weather in Peschanka

Russia / Zabaykalsky Krai     51°59′07″N   113°35′37″E
temp.,
°C
wind,
m/s
gust,
m/s
humid.,
%
clouds,
%
prec.,
mm/h
press.,
hPa
HPBL,
m
28 october, thu
thu2800:000se11666 0.0 101910
03:00−1s117230 0.0 101910
06:00−1w11775 0.0 102010
09:00−1w117496 0.0 102110
12:00+5wnw115158 0.0 1020319
15:00+8nw124259 0.0 1017487
18:00+4sw11555 0.0 101810
21:00+2wnw116354 0.0 102010
29 october, fri
fri2900:00+1w1170100 0.0 102210
03:000w2276100 0.0 102322
06:00−1nw2283100 0.0 102531
09:00−1wnw2373100 0.0 102878
12:00+2nnw2446100 0.0 1029715
15:00+3nnw3429100 0.0 10291050
18:000n113116 0.0 103111
21:00−3ene11355 0.0 103312
30 october, sat
sat3000:00−4ese11380 0.0 103510
03:00−5sse11400 0.0 103511
06:00−6se11440 0.0 103613
09:00−5sse11480 0.0 103618
12:00+1sw12412 0.0 1034421
15:00+4wsw23349 0.0 1031626
18:00−1sse11465 0.0 103110
21:00−3s11495 0.0 103210
31 october, sun
sun3100:00−4s11495 0.0 103210
03:00−4sse11505 0.0 103111
06:00−5sse11525 0.0 103111
09:00−5se11520 0.0 103015
12:00+2s12327 0.0 1027350
15:00+6s242551 0.0 1024662
18:00+1ese2142100 0.0 102410
21:00−1se114880 0.0 102510
1 november, mon
mon100:00−2se1152100 0.0 102410
03:00−3se115375 0.0 102310
06:00−4se115830 0.0 102210
09:00−4ese1161100 0.0 102120
12:00+1se1244100 0.0 1018300
15:00+4se24395 0.0 1014566
18:000ese22626 0.0 101520
21:00−2ese2274100 0.0 101517